This demonstration page uses our WeatherBlox Daily Observations layout. Learn more.

Left ArrowRight Arrow

31.31129, -92.44514

Hourly Observations for August 20, 2018

Temp ( °F °C ) Dew Point ( °F °C ) Humidity (%) Winds ( mph kmh ) Pressure ( in mb ) Visibility ( mi km ) Precip ( " mm )
12:53 am 00:53 Clear 80 26.7 76 24.4 87 87 S 8 13 29.92 1013 10 16 0.00 0.00
1:53 am 01:53 Clear 80 26.7 75 23.9 85 85 SSW 5 7 29.93 1014 10 16 0.00 0.00
2:53 am 02:53 Clear 78 25.6 75 23.9 90 90 S 5 7 29.93 1014 10 16 0.00 0.00
3:53 am 03:53 Clear 77 25 75 23.9 94 94 SSE 5 7 29.95 1014 9 14 0.00 0.00
4:53 am 04:53 Clear 77 25 75 23.9 94 94 SSE 6 9 29.96 1014 8 13 0.00 0.00
5:53 am 05:53 Clear 77 25 75 23.9 94 94 S 5 7 29.96 1015 9 14 0.00 0.00
6:53 am 06:53 Sunny 78 25.6 74 23.3 87 87 S 5 7 29.97 1015 8 13 0.00 0.00
7:53 am 07:53 Sunny 80 26.7 76 24.4 87 87 SSW 7 11 29.98 1015 9 14 0.00 0.00
8:53 am 08:53 Sunny 84 28.9 75 23.9 74 74 SSW 9 15 29.98 1015 10 16 0.00 0.00
9:53 am 09:53 Mostly Sunny 87 30.6 74 23.3 65 65 WSW 10 17 29.99 1016 10 16 0.00 0.00
10:53 am 10:53 Mostly Cloudy 89 31.7 73 22.8 59 59 W 14 22 30.00 1016 10 16 0.00 0.00
11:53 am 11:53 Mostly Cloudy 92 33.3 72 22.2 52 52 W 12 19 30.00 1016 10 16 0.00 0.00
12:53 pm 12:53 Mostly Cloudy 95 35 70 21.1 44 44 SW 14 22 29.97 1015 10 16 0.00 0.00
1:53 pm 13:53 Partly Cloudy 95 35 69 20.6 43 43 SSW 10 17 29.95 1014 10 16 0.00 0.00
2:53 pm 14:53 Mostly Cloudy 95 35 70 21.1 44 44 SW 10 17 29.93 1014 10 16 0.00 0.00
3:53 pm 15:53 Mostly Cloudy 96 35.6 70 21.1 43 43 SW 6 9 29.91 1013 10 16 0.00 0.00
4:53 pm 16:53 Partly Cloudy 98 36.7 69 20.6 39 39 WSW 10 17 29.89 1012 10 16 0.00 0.00
5:53 pm 17:53 Mostly Cloudy 95 35 69 20.6 43 43 SSW 10 17 29.90 1013 10 16 0.00 0.00
6:53 pm 18:53 Sunny 91 32.8 71 21.7 52 52 S 8 13 29.90 1013 10 16 0.00 0.00
7:53 pm 19:53 Clear 87 30.6 73 22.8 63 63 S 9 15 29.91 1013 10 16 0.00 0.00
8:53 pm 20:53 Clear 86 30 72 22.2 63 63 SSW 9 15 29.93 1014 10 16 0.00 0.00
9:53 pm 21:53 Clear 83 28.3 73 22.8 72 72 S 7 11 29.97 1015 10 16 0.00 0.00
10:53 pm 22:53 Clear 83 28.3 74 23.3 74 74 S 8 13 29.98 1015 10 16 0.00 0.00
11:53 pm 23:53 Clear 82 27.8 75 23.9 79 79 S 7 11 29.99 1016 10 16 0.00 0.00

Powered by AerisWeather